Regional Weather Roundup
Issued by NWS

Home | Current Version | Previous Version | Graphics & Text | Print | Product List | Glossary On
Versions: 1 2 3 4 5 6 7 8 9 10 11 12 13 14 15 16 17 18 19 20 21 22 23 24 25 26 27 28 29 30 31 32 33 34 35 36 37 38 39 40 41 42 43 44 45 46 47 48 49 50
000
ASUS43 KDMX 021706
RWRIA

WEATHER ROUNDUP FOR IOWA
NATIONAL WEATHER SERVICE DES MOINES IA
1100 AM CST FRI DEC 02 2016

NOTE: "FAIR" INDICATES FEW OR NO CLOUDS BELOW 12,000 FEET WITH NO
SIGNIFICANT WEATHER AND/OR OBSTRUCTIONS TO VISIBILITY.

* - THESE STATIONS ARE NOT NWS STATIONS...THUS NOT UNDER NWS
QUALITY CONTROL.  THEY ALSO DO NOT REPORT WEATHER SUCH
AS PRECIPITATION OR FOG.

IAZ001>003-012>014-020>022-031>034-043>046-021800-
   NORTHWEST IOWA

CITY           SKY/WX    TMP DP  RH WIND       PRES   REMARKS
CARROLL *      CLOUDY    37  32  81 W5        30.26R WCI  34
CHEROKEE *     CLOUDY    34  33  94 N3        30.26R
DENISON *      CLOUDY    36  32  87 W7        30.25R WCI  30
LE MARS *      CLOUDY    36  32  87 CALM      30.28R
ORANGE CITY *  CLOUDY    34  28  80 CALM      30.26R
SHELDON *      CLOUDY    32  28  86 N9        30.24S WCI  24
SIOUX CITY     CLOUDY    38  32  79 NW8       30.29R WCI  32
SPENCER        CLOUDY    34  25  69 N14       30.25R WCI  25
STORM LAKE *   MOSUNNY   32  32 100 NE6       30.25R FOG     WCI  26
$$

IAZ055>058-069>071-079>083-090>094-021800-
   SOUTHWEST IOWA

CITY           SKY/WX    TMP DP  RH WIND       PRES   REMARKS
ATLANTIC *     CLOUDY    36  32  87 VRB7      30.27R WCI  30
AUDUBON *      CLOUDY    36  30  80 NW3       30.27R
CLARINDA *       N/A     39  32  75 VRB3      30.30S
COUNCIL BLFS * PTSUNNY   37  30  75 VRB5      30.27S WCI  34
CRESTON *      PTSUNNY   37  32  81 N7G13     30.26S WCI  32
HARLAN  *      CLOUDY    34  32  93 N6G13     30.30S WCI  29
LAMONI         MOSUNNY   40  31  70 NW7       30.26R
RED OAK *      PTSUNNY   39  32  75 N6        30.28S WCI  35
SHENANDOAH *   MOSUNNY   39  32  75 CALM      30.30R
$$

IAZ047>049-059>061-072>074-084-021800-
   CENTRAL IOWA

CITY           SKY/WX    TMP DP  RH WIND       PRES   REMARKS
AMES           CLOUDY    37  32  82 NW7       30.27R WCI  32
ANKENY *       CLOUDY    37  36  93 W7        30.28R WCI  32
BOONE *        CLOUDY    36  32  87 CALM      30.25R
CHARITON *       N/A     39  32  75 NW8       30.26S WCI  34
DES MOINES     CLOUDY    39  32  76 NW7       30.27R WCI  34
GRINNELL*      CLOUDY    38  32  81 NW8       30.25R WCI  32
KNOXVILLE *    CLOUDY    37  32  81 NW8       30.25R WCI  31
MARSHALLTOWN   CLOUDY    36  30  79 W9        30.25R WCI  29
NEWTON *       CLOUDY    37  32  81 NW7       30.25R WCI  32
PELLA *        CLOUDY    39  32  77 NW6       30.28R WCI  34
PERRY *        CLOUDY    37  34  89 NW5       30.27R WCI  33
$$

IAZ004>006-015-016-023>025-035-036-021800-
   NORTH CENTRAL IOWA

CITY           SKY/WX    TMP DP  RH WIND       PRES   REMARKS
ALGONA *       CLOUDY    34  28  80 N8        30.24S WCI  27
CLARION *      CLOUDY    34  30  86 NW10      30.25R WCI  26
ESTHERVILLE    CLOUDY    31  26  82 NW9       30.24R WCI  23
FORT DODGE *   CLOUDY    36  28  75 N6        30.26R WCI  31
MASON CITY     CLOUDY    31  24  75 NW12      30.25R WCI  22
WEBSTER CITY * CLOUDY    36  32  87 NW9G15    30.23R WCI  29
IOWA FALLS *   CLOUDY    35  29  80 NW10      30.25R WCI  27
$$

IAZ007>011-017>019-026>030-037>042-050>054-066-021800-
   NORTHEAST IOWA

CITY           SKY/WX    TMP DP  RH WIND       PRES   REMARKS
CEDAR RAPIDS   CLOUDY    36  31  82 W10       30.23R WCI  28
CHARLES CITY * CLOUDY    32  25  74 NW12      30.23S WCI  23
CLINTON *      CLOUDY    39  34  82 W13       30.21S WCI  31
DECORAH *      CLOUDY    32  23  69 NW7       30.20R WCI  26
DUBUQUE        CLOUDY    35  27  72 NW15      30.20R WCI  25
MONTICELLO *   CLOUDY    37  30  75 NW13      30.21S WCI  29
OELWEIN *      CLOUDY    34  28  80 NW10G18   30.22R WCI  26
WATERLOO       CLOUDY    35  26  69 NW16      30.23R WCI  25
$$

IAZ064-065-067-068-078-021800-
   EAST CENTRAL IOWA

CITY           SKY/WX    TMP DP  RH WIND       PRES   REMARKS
DAVENPORT      CLOUDY    39  32  76 NW10      30.22S WCI  32
IOWA CITY      CLOUDY    39  29  67 W9        30.26R WCI  33
MUSCATINE *    CLOUDY    41  32  70 W12       30.25S
QUAD CITIES    CLOUDY    40  32  73 W8        30.22R WCI  34
$$

IAZ062-063-075>077-085>089-095>099-021800-
   SOUTHEAST IOWA

CITY           SKY/WX    TMP DP  RH WIND       PRES   REMARKS
BURLINGTON     MOSUNNY   40  30  67 NW9       30.24R WCI  34
FAIRFIELD *    CLOUDY    41  32  70 W9        30.25R
FORT MADISON * PTSUNNY   41  32  70 W9        30.26R
KEOKUK *       MOSUNNY   41  30  65 VRB5      30.25S
OSKALOOSA *    CLOUDY    38  32  79 NW9       30.26S WCI  31
CENTERVILLE *    N/A     43  32  65 W6        30.27S
OTTUMWA        CLOUDY    40  31  70 NW9       30.25R WCI  34
WASHINGTON *   CLOUDY    39  32  75 NW12      30.25F WCI  32
$$

ABBREVIATIONS USED IN REMARKS
   TC - TEMPERATURES IN CELSIUS
  WCI - WIND CHILL INDEX
   HX - HEAT INDEX
  VSB - VISIBILITY
$$




USA.gov is the U.S. government's official web portal to all federal, state and local government web resources and services.